Regional Weather Roundup
Issued by NWS Midland/Odessa, TX

Skip options and go directly to product.
Home | Oldest Version | Previous Version | Current Version | All | Text Only | Save Text | Print | Product List | Glossary Off

Skip product version selection by date and time.   

814
ASUS44 KMAF 150202
RWRMAF
MIDLAND AREA WEATHER ROUNDUP
NATIONAL WEATHER SERVICE MIDLAND TX
900 PM CDT SUN SEP 14 2014

...IN SOUTHWEST TEXAS AND SOUTHEAST NEW MEXICO...

CITY           SKY/WX    TMP DP  RH WIND       PRES   REMARKS
ALPINE         CLOUDY    63  59  86 CALM      30.27S
ANDREWS        RAIN      63  62  98 SE7       30.21S
ARTESIA        NOT AVBL
BIG SPRING     CLOUDY    69  65  87 CALM      30.21S
CARLSBAD       CLOUDY    64  63  96 S8        30.17S
DRYDEN           N/A     71  65  81 E3        30.16R
FORT STOCKTON  MOCLDY    66  62  87 SE8       30.17S
GUAD PASS      LGT RAIN  56  56 100 E22       30.25R VSB 1/4
HOBBS          MOCLDY    63  63 100 SE10      30.21R
MARFA          CLOUDY    63  57  82 SE7       30.24S
MIDLAND AIRPK  NOT AVBL
MIDLAND INTL   CLOUDY    66  63  90 SE5       30.18F
ODESSA         CLOUDY    65  62  90 E7        30.19F
PECOS          CLOUDY    66  62  85 E7        30.15S
PRESIDIO       CLOUDY    73  60  63 NE8       30.11R
SEMINOLE       CLOUDY    65  61  88 S12       30.21S
SNYDER         CLOUDY    69  65  88 CALM      30.19S
WINK           CLOUDY    66  63  90 SE10      30.15F
$$
...OTHER STATIONS IN TEXAS...

CITY           SKY/WX    TMP DP  RH WIND       PRES   REMARKS
ABILENE        CLOUDY    78  61  55 SW3       30.16R
AMARILLO       CLOUDY    65  61  87 S17       30.15R
AUSTIN         MOCLDY    73  67  81 E5        30.12R
BROWNSVILLE    MOCLDY    80  76  87 N12       30.04R
CORPUS CHRISTI MOCLDY    76  68  76 E10       30.08R
DALLAS FTW     MOCLDY    74  63  68 NE3       30.13R
DEL RIO        MOCLDY    72  67  84 SW5       30.12R
EL PASO        MOCLDY    74  58  57 E15       30.09R
HOUSTON INT    PTCLDY    71  68  90 CALM      30.10R
LUBBOCK        CLOUDY    63  60  90 S9        30.19S
SAN ANGELO     CLOUDY    75  63  66 E3        30.15S
SAN ANTONIO    CLOUDY    76  66  71 E8        30.12R
WACO           PTCLDY    69  64  84 SW3       30.14R
WICHITA FALLS  NOT AVBL
$$
...OTHER LOCATIONS IN NEW MEXICO...

CITY           SKY/WX    TMP DP  RH WIND       PRES   REMARKS
ALAMAGORDO     MOCLDY    72  55  56 S9        30.13R
ALBUQUERQUE    PTCLDY    74  51  44 S14       30.17R
CANNON AFB     MOCLDY    65  60  86 S14       30.18F
CLOVIS           N/A     64  57  77 S14       30.21S
HOLLOMAN AFB   PTCLDY    73  57  58 S10       30.11R
ROSWELL        CLOUDY    64  60  87 S9        30.18R
RUIDOSO        CLOUDY    57  57 100 SE7       30.31R
SANTA FE       PTCLDY    67  50  54 SE16      30.23R
TRUTH OR CONSE CLOUDY    74  54  49 SE5       30.14R
TUCUMCARI      MOCLDY    68  59  73 SW10      30.12S
$$

USA.gov is the U.S. government's official web portal to all federal, state and local government web resources and services.